This is the latest recevied weather packets stored in our database for station/object KC1BRV. If no packets are shown the sender has not sent any weather packets the latest 10 day(s).
| Time | Temp. | Humidity | Pressure | Rain* | Wind** | Luminosity | Snow |
|---|---|---|---|---|---|---|---|
| 1788370851 | 23.33° C | 67% | 1022.3 hPa | 0 mm | - | 430 W/m² | - |
| 1788370544 | 23.33° C | 65% | 1022.3 hPa | 0 mm | - | 358 W/m² | - |
| 1788370239 | 22.78° C | 69% | 1022.2 hPa | 0 mm | - | 493 W/m² | - |
| 1788369938 | 23.33° C | 68% | 1022.2 hPa | 0 mm | - | 479 W/m² | - |
| 1788369634 | 23.33° C | 64% | 1022.1 hPa | 0 mm | - | 422 W/m² | - |
| 1788369329 | 23.89° C | 63% | 1022.2 hPa | 0 mm | - | 382 W/m² | - |
| 1788369025 | 23.89° C | 63% | 1022.1 hPa | 0 mm | - | 623 W/m² | - |
| 1788368720 | 23.33° C | 66% | 1022.3 hPa | 0 mm | - | 651 W/m² | - |
| 1788368417 | 23.33° C | 64% | 1022.4 hPa | 0 mm | - | 698 W/m² | - |
| 1788368116 | 22.78° C | 69% | 1022.4 hPa | 0 mm | - | 627 W/m² | - |
| 1788367816 | 22.78° C | 65% | 1022.6 hPa | 0 mm | - | 445 W/m² | - |
| 1788367511 | 22.78° C | 68% | 1022.6 hPa | 0 mm | - | 464 W/m² | - |
| 1788367209 | 23.33° C | 66% | 1022.6 hPa | 0 mm | - | 454 W/m² | - |
| 1788366906 | 22.78° C | 67% | 1022.6 hPa | 0 mm | - | 707 W/m² | - |
| 1788366603 | 22.78° C | 65% | 1022.5 hPa | 0 mm | - | 622 W/m² | - |
| 1788366298 | 22.78° C | 66% | 1022.4 hPa | 0 mm | - | 638 W/m² | - |
| 1788365999 | 22.78° C | 68% | 1022.4 hPa | 0 mm | - | 559 W/m² | - |
| 1788365694 | 22.22° C | 68% | 1022.5 hPa | 0 mm | - | 529 W/m² | - |
| 1788365389 | 22.22° C | 67% | 1022.7 hPa | 0 mm | - | 423 W/m² | - |
| 1788365085 | 22.22° C | 68% | 1022.6 hPa | 0 mm | - | 464 W/m² | - |
| 1788364783 | 22.22° C | 67% | 1022.7 hPa | 0 mm | - | 441 W/m² | - |
| 1788364479 | 21.67° C | 65% | 1022.9 hPa | 0 mm | - | 409 W/m² | - |
| 1788364172 | 21.67° C | 68% | 1022.9 hPa | 0 mm | - | 339 W/m² | - |
| 1788363868 | 21.67° C | 70% | 1023 hPa | 0 mm | - | 537 W/m² | - |
| 1788363567 | 22.22° C | 69% | 1023 hPa | 0 mm | - | 327 W/m² | - |
* Rain latest hour (hover to see other rain measurements)
** Current wind speed in m/s (hover to see current wind gust speed)